ITY202 LIRF-EGLL

Flight info

Callsign ITY202
Flight time 2h 7m
Altitude 36000
Route NEMBO7A NEMBO DCT GOVGO DCT SPEZI DCT OTMUV DCT AOSTA DCT ORSUD DCT MOLUS DCT GILIR DCT PENDU DCT IXILU DCT EPL DCT ROUSY DCT RITAX M624 BUB L608 LOGAN LOGAN2H
Aircraft A320/M-SDE3FGHIRWY/LB1

Departure

Time 2026-05-05 15:05
Airport Rome–Fiumicino Leonardo da Vinci International Airport (LIRF)

Arrival

Time 2026-05-05 17:13
Airport London Heathrow Airport (EGLL)
Time Latitude Longitude Altitude Speed Heading
2026-05-05 14:38 41.79654 12.25595 14 ft 0 kts 295°
2026-05-05 14:56 41.79647 12.25614 14 ft 4 kts 303°
2026-05-05 14:56 41.79630 12.25640 16 ft 4 kts 332°
2026-05-05 14:56 41.79607 12.25646 15 ft 3 kts 22°
2026-05-05 14:57 41.79604 12.25645 17 ft 0 kts 25°
2026-05-05 14:59 41.79727 12.25723 14 ft 38 kts 25°
2026-05-05 14:59 41.79863 12.25774 15 ft 15 kts 318°
2026-05-05 14:59 41.79911 12.25657 14 ft 14 kts 294°
2026-05-05 14:59 41.79959 12.25519 14 ft 30 kts 296°
2026-05-05 15:00 41.80068 12.25204 14 ft 39 kts 291°
2026-05-05 15:00 41.80115 12.24968 14 ft 39 kts 275°
2026-05-05 15:00 41.80018 12.24556 13 ft 34 kts 249°
2026-05-05 15:00 41.79937 12.24253 14 ft 35 kts 250°
2026-05-05 15:01 41.79890 12.23944 14 ft 34 kts 251°
2026-05-05 15:01 41.79810 12.23641 15 ft 35 kts 251°
2026-05-05 15:01 41.79767 12.23480 15 ft 0 kts 250°
2026-05-05 15:01 41.79767 12.23475 17 ft 0 kts 265°
2026-05-05 15:02 41.79861 12.23345 17 ft 45 kts 333°
2026-05-05 15:02 41.80094 12.23249 16 ft 0 kts 342°
2026-05-05 15:02 41.80219 12.23209 16 ft 48 kts 351°
2026-05-05 15:02 41.80598 12.23051 16 ft 57 kts 341°
2026-05-05 15:03 41.80971 12.22883 16 ft 57 kts 341°
2026-05-05 15:03 41.81345 12.22729 13 ft 46 kts 342°
2026-05-05 15:03 41.81508 12.22687 14 ft 0 kts 313°
2026-05-05 15:03 41.81484 12.22644 14 ft 16 kts 202°
2026-05-05 15:04 41.81400 12.22701 15 ft 13 kts 161°
2026-05-05 15:04 41.81296 12.22744 15 ft 25 kts 162°
2026-05-05 15:04 41.80907 12.22909 16 ft 92 kts 163°
2026-05-05 15:04 41.80111 12.23241 18 ft 145 kts 162°
2026-05-05 15:05 41.77862 12.24256 687 ft 192 kts 159°
2026-05-05 15:05 41.76521 12.24782 1246 ft 209 kts 171°
2026-05-05 15:05 41.75039 12.24666 2068 ft 218 kts 199°
2026-05-05 15:06 41.73820 12.23463 2951 ft 225 kts 224°
2026-05-05 15:06 41.72808 12.21882 3956 ft 222 kts 230°
2026-05-05 15:06 41.71837 12.20288 4899 ft 221 kts 227°
2026-05-05 15:06 41.70787 12.18829 5846 ft 216 kts 227°
2026-05-05 15:07 41.69836 12.17353 6893 ft 196 kts 243°
2026-05-05 15:07 41.69653 12.15726 7931 ft 182 kts 279°
2026-05-05 15:07 41.69958 12.13951 8084 ft 211 kts 278°
2026-05-05 15:07 41.70354 12.11960 8452 ft 229 kts 290°
2026-05-05 15:08 41.71173 12.10046 8969 ft 245 kts 300°
2026-05-05 15:08 41.72173 12.08094 9498 ft 263 kts 302°
2026-05-05 15:08 41.73263 12.06070 10019 ft 280 kts 303°
2026-05-05 15:08 41.74451 12.03905 10505 ft 297 kts 304°
2026-05-05 15:09 41.75726 12.01592 10997 ft 312 kts 303°
2026-05-05 15:09 41.77026 11.99227 11495 ft 326 kts 303°
2026-05-05 15:09 41.78396 11.96729 11991 ft 339 kts 303°
2026-05-05 15:09 41.79813 11.94130 12513 ft 351 kts 303°
2026-05-05 15:10 41.81272 11.91442 13029 ft 362 kts 303°
2026-05-05 15:10 41.82770 11.88676 13555 ft 371 kts 303°
2026-05-05 15:10 41.84327 11.85802 14062 ft 380 kts 303°
2026-05-05 15:10 41.85873 11.82935 14529 ft 388 kts 302°
2026-05-05 15:11 41.87003 11.79670 15001 ft 389 kts 281°
2026-05-05 15:11 41.87499 11.76075 15490 ft 395 kts 278°
2026-05-05 15:11 41.88009 11.72422 15977 ft 401 kts 279°
2026-05-05 15:11 41.88557 11.68730 16480 ft 407 kts 279°
2026-05-05 15:12 41.89127 11.64980 16998 ft 413 kts 279°
2026-05-05 15:12 41.89723 11.61188 17513 ft 417 kts 282°
2026-05-05 15:12 41.90839 11.57578 18016 ft 423 kts 298°
2026-05-05 15:12 41.92433 11.54248 18525 ft 425 kts 301°
2026-05-05 15:13 41.94047 11.50922 18993 ft 425 kts 301°
2026-05-05 15:13 41.95667 11.47589 19475 ft 426 kts 301°
2026-05-05 15:13 41.97283 11.44258 19943 ft 426 kts 300°
2026-05-05 15:13 41.98899 11.40921 20430 ft 426 kts 300°
2026-05-05 15:14 42.00512 11.37581 20927 ft 425 kts 300°
2026-05-05 15:14 42.02121 11.34246 21431 ft 425 kts 300°
2026-05-05 15:14 42.03727 11.30914 21947 ft 425 kts 300°
2026-05-05 15:14 42.05330 11.27580 22460 ft 424 kts 300°
2026-05-05 15:15 42.06928 11.24250 23012 ft 423 kts 300°
2026-05-05 15:15 42.08520 11.20929 23549 ft 422 kts 300°
2026-05-05 15:15 42.10109 11.17615 24013 ft 421 kts 300°
2026-05-05 15:15 42.11693 11.14307 24476 ft 420 kts 299°
2026-05-05 15:16 42.13271 11.11007 24946 ft 418 kts 299°
2026-05-05 15:16 42.14838 11.07723 25422 ft 416 kts 299°
2026-05-05 15:16 42.16401 11.04446 25913 ft 414 kts 299°
2026-05-05 15:16 42.17956 11.01186 26401 ft 412 kts 298°
2026-05-05 15:17 42.19501 10.97941 26901 ft 410 kts 298°
2026-05-05 15:17 42.21034 10.94711 27414 ft 408 kts 298°
2026-05-05 15:17 42.22564 10.91486 27746 ft 410 kts 298°
2026-05-05 15:17 42.24108 10.88227 28013 ft 414 kts 298°
2026-05-05 15:18 42.25662 10.84944 28275 ft 416 kts 298°
2026-05-05 15:18 42.27410 10.81791 28544 ft 424 kts 307°
2026-05-05 15:18 42.29546 10.79002 28816 ft 432 kts 315°
2026-05-05 15:18 42.32039 10.76667 29091 ft 441 kts 324°
2026-05-05 15:19 42.34834 10.74880 29368 ft 450 kts 333°
2026-05-05 15:19 42.37787 10.73438 29650 ft 452 kts 334°
2026-05-05 15:19 42.40744 10.71990 29929 ft 452 kts 333°
2026-05-05 15:19 42.43698 10.70532 30189 ft 452 kts 333°
2026-05-05 15:20 42.46653 10.69068 30422 ft 452 kts 333°
2026-05-05 15:20 42.49607 10.67600 30654 ft 452 kts 333°
2026-05-05 15:20 42.52559 10.66130 30921 ft 452 kts 333°
2026-05-05 15:20 42.55510 10.64662 31173 ft 451 kts 333°
2026-05-05 15:21 42.58454 10.63195 31421 ft 451 kts 332°
2026-05-05 15:21 42.61360 10.61748 31667 ft 450 kts 332°
2026-05-05 15:21 42.64299 10.60284 31923 ft 449 kts 332°
2026-05-05 15:21 42.67269 10.58803 32190 ft 449 kts 332°
2026-05-05 15:22 42.70194 10.57341 32442 ft 448 kts 332°
2026-05-05 15:22 42.73078 10.55899 32700 ft 447 kts 332°
2026-05-05 15:22 42.75999 10.54438 32991 ft 447 kts 331°
2026-05-05 15:22 42.78916 10.52978 33257 ft 446 kts 331°
2026-05-05 15:23 42.81827 10.51518 33528 ft 446 kts 331°
2026-05-05 15:23 42.84733 10.50059 33801 ft 445 kts 331°
2026-05-05 15:23 42.87633 10.48600 34062 ft 444 kts 331°
2026-05-05 15:23 42.90530 10.47144 34300 ft 443 kts 331°
2026-05-05 15:24 42.93426 10.45689 34538 ft 443 kts 331°
2026-05-05 15:24 42.96325 10.44232 34797 ft 442 kts 331°
2026-05-05 15:24 42.99193 10.42790 35040 ft 441 kts 331°
2026-05-05 15:24 43.02067 10.41342 35282 ft 439 kts 331°
2026-05-05 15:25 43.04932 10.39895 35536 ft 438 kts 331°
2026-05-05 15:25 43.07783 10.38451 35783 ft 437 kts 331°
2026-05-05 15:25 43.10631 10.37008 35945 ft 438 kts 331°
2026-05-05 15:26 43.15382 10.34525 35983 ft 439 kts 327°
2026-05-05 15:26 43.20417 10.30040 35981 ft 427 kts 310°
2026-05-05 15:27 43.24869 10.24577 35984 ft 432 kts 311°
2026-05-05 15:27 43.29382 10.19085 35989 ft 435 kts 310°
2026-05-05 15:28 43.33924 10.13545 35986 ft 438 kts 310°
2026-05-05 15:28 43.38480 10.07958 35982 ft 439 kts 310°
2026-05-05 15:29 43.43040 10.02352 35994 ft 440 kts 310°
2026-05-05 15:29 43.47601 9.96730 35981 ft 440 kts 310°
2026-05-05 15:30 43.52167 9.91097 35987 ft 441 kts 310°
2026-05-05 15:30 43.56731 9.85457 35988 ft 441 kts 310°
2026-05-05 15:31 43.61300 9.79794 36034 ft 442 kts 310°
2026-05-05 15:31 43.65867 9.74139 35975 ft 441 kts 310°
2026-05-05 15:32 43.70428 9.68468 35969 ft 441 kts 310°
2026-05-05 15:32 43.74984 9.62778 35967 ft 442 kts 310°
2026-05-05 15:33 43.79533 9.57062 35971 ft 442 kts 310°
2026-05-05 15:33 43.84045 9.51293 35983 ft 442 kts 309°
2026-05-05 15:34 43.88552 9.45493 35995 ft 443 kts 309°
2026-05-05 15:34 43.93067 9.39675 35975 ft 444 kts 309°
2026-05-05 15:35 43.97591 9.33841 35963 ft 444 kts 309°
2026-05-05 15:35 44.02119 9.27994 35961 ft 445 kts 309°
2026-05-05 15:36 44.06651 9.22140 35979 ft 446 kts 309°
2026-05-05 15:36 44.11197 9.16254 35973 ft 447 kts 309°
2026-05-05 15:37 44.15747 9.10342 35970 ft 448 kts 309°
2026-05-05 15:37 44.20406 9.04541 35991 ft 456 kts 316°
2026-05-05 15:38 44.25565 8.99365 35989 ft 457 kts 316°
2026-05-05 15:38 44.30731 8.94174 36007 ft 458 kts 316°
2026-05-05 15:39 44.35892 8.88942 35995 ft 459 kts 316°
2026-05-05 15:39 44.41053 8.83698 35993 ft 459 kts 316°
2026-05-05 15:40 44.46219 8.78457 35992 ft 459 kts 316°
2026-05-05 15:40 44.51388 8.73210 35986 ft 458 kts 316°
2026-05-05 15:41 44.56549 8.67950 35989 ft 459 kts 316°
2026-05-05 15:41 44.61712 8.62675 35975 ft 459 kts 316°
2026-05-05 15:42 44.66875 8.57391 35976 ft 460 kts 316°
2026-05-05 15:42 44.72041 8.52081 35980 ft 460 kts 316°
2026-05-05 15:43 44.77215 8.46758 35981 ft 461 kts 316°
2026-05-05 15:43 44.82398 8.41421 35983 ft 462 kts 316°
2026-05-05 15:44 44.87585 8.36063 35998 ft 463 kts 316°
2026-05-05 15:44 44.92783 8.30669 35992 ft 465 kts 316°
2026-05-05 15:45 44.97999 8.25253 35983 ft 466 kts 316°
2026-05-05 15:45 45.03222 8.19827 35983 ft 466 kts 316°
2026-05-05 15:46 45.08444 8.14384 35981 ft 466 kts 316°
2026-05-05 15:46 45.13660 8.08924 35982 ft 467 kts 316°
2026-05-05 15:47 45.18904 8.03423 35983 ft 470 kts 316°
2026-05-05 15:47 45.24164 7.97897 35986 ft 471 kts 316°
2026-05-05 15:48 45.29422 7.92365 35987 ft 470 kts 316°
2026-05-05 15:48 45.34649 7.86859 35982 ft 471 kts 316°
2026-05-05 15:49 45.39952 7.81262 35982 ft 472 kts 316°
2026-05-05 15:49 45.45180 7.75711 36009 ft 472 kts 316°
2026-05-05 15:50 45.50440 7.70105 35999 ft 472 kts 316°
2026-05-05 15:50 45.55709 7.64486 36017 ft 473 kts 316°
2026-05-05 15:51 45.60979 7.58866 36005 ft 473 kts 316°
2026-05-05 15:51 45.66245 7.53230 36002 ft 473 kts 316°
2026-05-05 15:52 45.71513 7.47577 35977 ft 473 kts 316°
2026-05-05 15:52 45.76775 7.41923 36001 ft 473 kts 316°
2026-05-05 15:53 45.82038 7.36247 35993 ft 473 kts 316°
2026-05-05 15:53 45.87295 7.30562 35971 ft 473 kts 316°
2026-05-05 15:54 45.92551 7.24867 35957 ft 473 kts 316°
2026-05-05 15:54 45.97812 7.19163 35914 ft 473 kts 316°
2026-05-05 15:55 46.03060 7.13449 35941 ft 473 kts 316°
2026-05-05 15:55 46.08322 7.07704 35922 ft 475 kts 316°
2026-05-05 15:56 46.13578 7.01953 35891 ft 473 kts 316°
2026-05-05 15:56 46.18808 6.96214 35898 ft 473 kts 317°
2026-05-05 15:57 46.24047 6.90456 35888 ft 474 kts 317°
2026-05-05 15:57 46.29303 6.84665 35892 ft 475 kts 317°
2026-05-05 15:58 46.34564 6.78853 35918 ft 476 kts 317°
2026-05-05 15:58 46.39828 6.73029 35925 ft 477 kts 317°
2026-05-05 15:59 46.45235 6.67414 35913 ft 483 kts 326°
2026-05-05 15:59 46.51290 6.63096 35911 ft 485 kts 329°
2026-05-05 16:00 46.57371 6.58828 35909 ft 485 kts 329°
2026-05-05 16:00 46.63442 6.54539 35905 ft 485 kts 329°
2026-05-05 16:01 46.69518 6.50237 35902 ft 485 kts 329°
2026-05-05 16:01 46.75592 6.45928 35918 ft 486 kts 329°
2026-05-05 16:02 46.81665 6.41598 35893 ft 486 kts 330°
2026-05-05 16:02 46.87736 6.37256 35893 ft 486 kts 330°
2026-05-05 16:03 46.93807 6.32906 35889 ft 486 kts 330°
2026-05-05 16:03 46.99883 6.28558 35888 ft 486 kts 330°
2026-05-05 16:04 47.05959 6.24191 35886 ft 487 kts 330°
2026-05-05 16:04 47.12030 6.19815 35887 ft 486 kts 330°
2026-05-05 16:05 47.18108 6.15433 35878 ft 487 kts 330°
2026-05-05 16:05 47.24194 6.11038 35873 ft 488 kts 330°
2026-05-05 16:06 47.30286 6.06628 35882 ft 488 kts 331°
2026-05-05 16:06 47.36803 6.03676 35869 ft 496 kts 350°
2026-05-05 16:07 47.43725 6.03467 35874 ft 499 kts 359°
2026-05-05 16:07 47.50674 6.03633 35881 ft 499 kts 359°
2026-05-05 16:08 47.57611 6.03781 35885 ft 498 kts 359°
2026-05-05 16:08 47.63375 6.03909 35875 ft 498 kts 359°
2026-05-05 16:09 47.70296 6.04062 35878 ft 497 kts 360°
2026-05-05 16:09 47.77199 6.04224 35886 ft 496 kts 360°
2026-05-05 16:10 47.84088 6.04447 35881 ft 495 kts
2026-05-05 16:10 47.90967 6.04680 35861 ft 494 kts
2026-05-05 16:11 47.97844 6.04892 35855 ft 494 kts
2026-05-05 16:12 48.11599 6.05318 35834 ft 495 kts
2026-05-05 16:13 48.28838 6.05870 35830 ft 496 kts
2026-05-05 16:13 48.35739 6.06105 35839 ft 496 kts
2026-05-05 16:14 48.49537 6.06779 35836 ft 496 kts
2026-05-05 16:15 48.63330 6.07435 35859 ft 495 kts
2026-05-05 16:16 48.77096 6.08094 35852 ft 494 kts
2026-05-05 16:17 48.87407 6.08580 35848 ft 494 kts
2026-05-05 16:18 48.97720 6.09065 35832 ft 494 kts
2026-05-05 16:19 49.08029 6.09571 35834 ft 494 kts
2026-05-05 16:19 49.18344 6.10084 35833 ft 495 kts
2026-05-05 16:20 49.32115 6.10736 35834 ft 495 kts
2026-05-05 16:22 49.49304 6.10500 35853 ft 495 kts 346°
2026-05-05 16:23 49.62397 6.03997 35838 ft 495 kts 341°
2026-05-05 16:23 49.72225 5.99013 35835 ft 496 kts 341°
2026-05-05 16:24 49.78780 5.95667 35823 ft 496 kts 341°
2026-05-05 16:25 49.88614 5.90600 35823 ft 497 kts 341°
2026-05-05 16:25 49.98446 5.85531 35839 ft 496 kts 341°
2026-05-05 16:26 50.10710 5.76253 35836 ft 490 kts 315°
2026-05-05 16:27 50.15616 5.68889 35838 ft 490 kts 313°
2026-05-05 16:27 50.20523 5.61509 35854 ft 491 kts 314°
2026-05-05 16:28 50.25431 5.54093 35845 ft 491 kts 313°
2026-05-05 16:28 50.30326 5.46656 35869 ft 490 kts 313°
2026-05-05 16:29 50.35204 5.39224 35868 ft 489 kts 313°
2026-05-05 16:29 50.40063 5.31800 35851 ft 487 kts 313°
2026-05-05 16:30 50.44901 5.24382 35854 ft 486 kts 313°
2026-05-05 16:30 50.49726 5.16945 35863 ft 486 kts 313°
2026-05-05 16:31 50.54556 5.09507 35871 ft 486 kts 313°
2026-05-05 16:31 50.59380 5.02060 35867 ft 486 kts 313°
2026-05-05 16:32 50.64200 4.94590 35869 ft 486 kts 313°
2026-05-05 16:32 50.69012 4.87104 35876 ft 486 kts 313°
2026-05-05 16:33 50.73821 4.79613 35879 ft 486 kts 313°
2026-05-05 16:33 50.78623 4.72100 35882 ft 486 kts 313°
2026-05-05 16:34 50.83416 4.64579 35916 ft 485 kts 313°
2026-05-05 16:34 50.88204 4.57060 35913 ft 484 kts 312°
2026-05-05 16:35 50.92246 4.48665 35911 ft 478 kts 298°
2026-05-05 16:35 50.95690 4.39648 35905 ft 478 kts 298°
2026-05-05 16:36 50.99143 4.30636 35899 ft 478 kts 298°
2026-05-05 16:36 51.02596 4.21608 35896 ft 478 kts 298°
2026-05-05 16:37 51.06034 4.12563 35894 ft 478 kts 298°
2026-05-05 16:37 51.09464 4.03505 35893 ft 478 kts 298°
2026-05-05 16:38 51.12890 3.94433 35891 ft 478 kts 298°
2026-05-05 16:38 51.16306 3.85353 35889 ft 478 kts 298°
2026-05-05 16:39 51.19711 3.76247 35899 ft 478 kts 298°
2026-05-05 16:39 51.23109 3.67141 35896 ft 477 kts 298°
2026-05-05 16:40 51.26502 3.58031 35899 ft 477 kts 298°
2026-05-05 16:40 51.29880 3.48911 35912 ft 477 kts 298°
2026-05-05 16:41 51.33256 3.39766 35909 ft 477 kts 298°
2026-05-05 16:41 51.36081 3.30236 35914 ft 473 kts 288°
2026-05-05 16:42 51.38414 3.20388 35918 ft 473 kts 288°
2026-05-05 16:42 51.40744 3.10531 35919 ft 473 kts 288°
2026-05-05 16:43 51.43076 3.00666 35920 ft 473 kts 288°
2026-05-05 16:43 51.45388 2.90791 35917 ft 473 kts 287°
2026-05-05 16:44 51.47688 2.80905 35928 ft 473 kts 288°
2026-05-05 16:44 51.49978 2.71009 35930 ft 473 kts 288°
2026-05-05 16:45 51.52265 2.61115 35932 ft 473 kts 288°
2026-05-05 16:45 51.54545 2.51206 35930 ft 473 kts 287°
2026-05-05 16:46 51.56815 2.41292 35940 ft 473 kts 287°
2026-05-05 16:46 51.59080 2.31380 35951 ft 472 kts 288°
2026-05-05 16:47 51.61329 2.21480 35959 ft 471 kts 288°
2026-05-05 16:47 51.63564 2.11581 35954 ft 470 kts 287°
2026-05-05 16:48 51.65789 2.01685 35952 ft 470 kts 288°
2026-05-05 16:48 51.67632 1.93459 35950 ft 470 kts 288°
2026-05-05 16:49 51.68734 1.88527 35503 ft 466 kts 287°
2026-05-05 16:49 51.69822 1.83633 34249 ft 462 kts 287°
2026-05-05 16:49 51.70903 1.78756 32454 ft 463 kts 287°
2026-05-05 16:49 51.71983 1.73850 30544 ft 465 kts 287°
2026-05-05 16:50 51.73066 1.68911 28348 ft 469 kts 287°
2026-05-05 16:50 51.73964 1.63885 26761 ft 460 kts 279°
2026-05-05 16:50 51.74346 1.58862 25967 ft 446 kts 271°
2026-05-05 16:50 51.74280 1.53854 25245 ft 454 kts 263°
2026-05-05 16:51 51.73971 1.48737 24507 ft 460 kts 263°
2026-05-05 16:51 51.73649 1.43614 23798 ft 458 kts 263°
2026-05-05 16:51 51.73321 1.38516 23020 ft 457 kts 263°
2026-05-05 16:51 51.72986 1.33430 22198 ft 454 kts 263°
2026-05-05 16:52 51.72645 1.28319 21410 ft 461 kts 263°
2026-05-05 16:52 51.72301 1.23174 20638 ft 461 kts 263°
2026-05-05 16:52 51.71959 1.18048 19881 ft 458 kts 264°
2026-05-05 16:52 51.71619 1.12964 19149 ft 455 kts 264°
2026-05-05 16:53 51.71278 1.07905 18431 ft 453 kts 263°
2026-05-05 16:53 51.70935 1.02879 17646 ft 449 kts 263°
2026-05-05 16:53 51.70592 0.97906 16857 ft 444 kts 263°
2026-05-05 16:53 51.70253 0.92985 16260 ft 439 kts 264°
2026-05-05 16:54 51.69915 0.88128 15622 ft 434 kts 264°
2026-05-05 16:54 51.69581 0.83375 15000 ft 431 kts 264°
2026-05-05 16:54 51.69240 0.78542 14387 ft 427 kts 264°
2026-05-05 16:54 51.68909 0.73865 13797 ft 424 kts 264°
2026-05-05 16:55 51.68578 0.69170 13141 ft 420 kts 264°
2026-05-05 16:55 51.68244 0.64452 12471 ft 416 kts 264°
2026-05-05 16:55 51.67914 0.59846 11836 ft 412 kts 264°
2026-05-05 16:55 51.67583 0.55290 11208 ft 408 kts 264°
2026-05-05 16:56 51.67256 0.50779 10590 ft 403 kts 264°
2026-05-05 16:56 51.66930 0.46311 9988 ft 399 kts 265°
2026-05-05 16:56 51.66612 0.41962 9343 ft 394 kts 264°
2026-05-05 16:56 51.66291 0.37606 8680 ft 389 kts 265°
2026-05-05 16:57 51.65969 0.33252 8036 ft 384 kts 265°
2026-05-05 16:57 51.65652 0.29005 7391 ft 380 kts 265°
2026-05-05 16:57 51.65335 0.24798 7009 ft 377 kts 264°
2026-05-05 16:57 51.65024 0.20698 6867 ft 364 kts 264°
2026-05-05 16:58 51.64735 0.16905 6894 ft 320 kts 265°
2026-05-05 16:58 51.64475 0.13545 6895 ft 286 kts 265°
2026-05-05 16:58 51.64213 0.10440 6897 ft 277 kts 264°
2026-05-05 16:58 51.63949 0.07382 6904 ft 277 kts 264°
2026-05-05 16:59 51.63691 0.04322 6899 ft 275 kts 264°
2026-05-05 16:59 51.63450 0.01268 6664 ft 274 kts 269°
2026-05-05 16:59 51.63419 -0.01782 6344 ft 272 kts 271°
2026-05-05 16:59 51.63406 -0.04816 5954 ft 271 kts 271°
2026-05-05 17:00 51.63392 -0.07845 5566 ft 270 kts 270°
2026-05-05 17:00 51.63380 -0.10866 5186 ft 269 kts 271°
2026-05-05 17:00 51.63364 -0.13868 4969 ft 268 kts 271°
2026-05-05 17:00 51.63339 -0.16878 4976 ft 270 kts 271°
2026-05-05 17:01 51.63317 -0.19902 4984 ft 270 kts 271°
2026-05-05 17:01 51.63301 -0.22921 4983 ft 270 kts 271°
2026-05-05 17:01 51.63282 -0.25946 4980 ft 270 kts 271°
2026-05-05 17:01 51.63269 -0.28972 4981 ft 270 kts 271°
2026-05-05 17:02 51.63257 -0.31993 4982 ft 270 kts 271°
2026-05-05 17:02 51.63245 -0.35013 4982 ft 270 kts 272°
2026-05-05 17:02 51.63229 -0.38033 4899 ft 270 kts 271°
2026-05-05 17:02 51.63213 -0.41054 4901 ft 270 kts 271°
2026-05-05 17:03 51.63195 -0.44079 4698 ft 270 kts 271°
2026-05-05 17:03 51.63174 -0.47096 4431 ft 269 kts 271°
2026-05-05 17:03 51.63155 -0.50095 4177 ft 268 kts 271°
2026-05-05 17:03 51.63133 -0.53090 3911 ft 267 kts 271°
2026-05-05 17:04 51.63111 -0.56077 3658 ft 267 kts 271°
2026-05-05 17:04 51.63092 -0.59052 3405 ft 265 kts 271°
2026-05-05 17:04 51.63068 -0.62018 3147 ft 265 kts 271°
2026-05-05 17:04 51.63040 -0.64975 2947 ft 263 kts 270°
2026-05-05 17:05 51.62750 -0.67877 2817 ft 266 kts 248°
2026-05-05 17:05 51.61866 -0.70464 2690 ft 258 kts 241°
2026-05-05 17:05 51.60985 -0.72902 2561 ft 246 kts 241°
2026-05-05 17:05 51.60143 -0.75222 2434 ft 235 kts 241°
2026-05-05 17:06 51.59339 -0.77437 2303 ft 225 kts 240°
2026-05-05 17:06 51.58320 -0.79228 2173 ft 214 kts 209°
2026-05-05 17:06 51.56932 -0.79743 2046 ft 202 kts 170°
2026-05-05 17:06 51.55724 -0.78853 2032 ft 184 kts 134°
2026-05-05 17:07 51.54817 -0.77450 1981 ft 176 kts 133°
2026-05-05 17:07 51.53923 -0.76153 1884 ft 172 kts 148°
2026-05-05 17:07 51.52825 -0.75391 1892 ft 173 kts 159°
2026-05-05 17:07 51.51687 -0.74796 1892 ft 172 kts 160°
2026-05-05 17:08 51.50547 -0.74236 1889 ft 171 kts 162°
2026-05-05 17:08 51.49422 -0.73641 1893 ft 170 kts 153°
2026-05-05 17:08 51.48468 -0.72569 1889 ft 166 kts 130°
2026-05-05 17:08 51.47860 -0.71070 1910 ft 154 kts 110°
2026-05-05 17:09 51.47645 -0.69425 1904 ft 148 kts 88°
2026-05-05 17:09 51.47654 -0.67789 1901 ft 146 kts 86°
2026-05-05 17:09 51.47663 -0.66166 1898 ft 145 kts 86°
2026-05-05 17:09 51.47671 -0.64583 1895 ft 139 kts 86°
2026-05-05 17:10 51.47679 -0.63043 1826 ft 137 kts 87°
2026-05-05 17:10 51.47687 -0.61516 1692 ft 136 kts 86°
2026-05-05 17:10 51.47695 -0.60003 1516 ft 135 kts 87°
2026-05-05 17:10 51.47703 -0.58499 1349 ft 135 kts 87°
2026-05-05 17:11 51.47710 -0.56998 1176 ft 134 kts 86°
2026-05-05 17:11 51.47717 -0.55506 994 ft 135 kts 86°
2026-05-05 17:11 51.47717 -0.53997 785 ft 136 kts 88°
2026-05-05 17:11 51.47724 -0.52485 587 ft 136 kts 87°
2026-05-05 17:12 51.47733 -0.50977 432 ft 137 kts 86°
2026-05-05 17:12 51.47747 -0.49455 217 ft 137 kts 86°
2026-05-05 17:12 51.47749 -0.47942 89 ft 129 kts 85°
2026-05-05 17:12 51.47758 -0.46698 92 ft 93 kts 90°
2026-05-05 17:13 51.47760 -0.45932 85 ft 49 kts 89°
2026-05-05 17:13 51.47754 -0.45537 88 ft 18 kts 118°
2026-05-05 17:13 51.47659 -0.45467 86 ft 15 kts 180°
2026-05-05 17:13 51.47631 -0.45467 86 ft 0 kts 179°
2026-05-05 17:14 51.47597 -0.45466 86 ft 17 kts 179°
2026-05-05 17:14 51.47509 -0.45378 90 ft 15 kts 98°